Вернуться в каталог

ELECTRON KICK STAGE R/B

АктивенVLEO
NORAD 58579·ROCKET BODY·🇺🇸 United States

Запущен Dec 15, 2023 с Rocket Lab Launch Complex 1

Loading…

Ближайшие Пролёты (ближайшие 24 часа)

TLE

СвежийSource: Space-Track

Эпоха: Sep 14, 2026, 01:50 UTC

1 58579U 23196B   26257.07659798  .00004768  00000-0  26234-3 0  9993
2 58579  42.0182 262.3902 0018004 109.7304 250.5471 15.14803057151414

Отслеживайте ELECTRON KICK STAGE R/B в реальном времени с AllMySat

Download on the App Store